N5CNB Weather Reports


Display with metric or nautical units.
time (UTC)temp
F
wind
direction
speed
MPH
gust
MPH
rain 1hr
in
rain 24hr
in
rain mn
in
humidity
%
barometer
mb
20260505033030 71 140 7.0 17.0 0.00 0.00 0.00 81 1010.9
20260505031525 71 140 6.0 13.0 0.00 0.00 0.00 80 1011.1
20260505030024 71 184 6.0 14.0 0.00 0.00 0.00 80 1011.1
20260505021526 72 217 4.0 14.0 0.00 0.00 0.00 78 1010.8
20260505020024 73 229 4.0 12.0 0.00 0.00 0.00 78 1010.8
20260505014514 73 232 8.0 18.0 0.00 0.00 0.00 77 1010.5
20260505013019 74 155 7.0 15.0 0.00 0.00 0.00 77 1010.4
20260505011524 74 199 7.0 14.0 0.00 0.00 0.00 76 1010.3
20260505010024 75 186 6.0 13.0 0.00 0.00 0.00 75 1010.1
20260505004526 75 249 5.0 12.0 0.00 0.00 0.00 73 1010.2
20260505003018 76 143 7.0 15.0 0.00 0.00 0.00 72 1010.4
20260505001519 76 172 3.0 12.0 0.00 0.00 0.00 72 1010.3
20260505000028 76 188 6.0 15.0 0.00 0.00 0.00 72 1010.5
20260504234524 77 188 8.0 16.0 0.00 0.00 0.00 71 1010.7
20260504233024 77 207 8.0 19.0 0.00 0.00 0.00 70 1010.6
20260504231517 79 37 7.0 15.0 0.00 0.00 0.00 68 1010.8
20260504230020 78 124 7.0 18.0 0.00 0.00 0.00 69 1010.8
20260504224526 79 165 10.0 17.0 0.00 0.00 0.00 66 1010.8
20260504223024 79 113 3.0 12.0 0.00 0.00 0.00 69 1010.9
20260504221524 78 173 8.0 16.0 0.00 0.00 0.00 68 1011.1
20260504220022 79 162 8.0 14.0 0.00 0.00 0.00 67 1011.2
20260504214521 79 174 9.0 15.0 0.00 0.00 0.00 67 1011.4
20260504213008 79 131 6.0 16.0 0.00 0.00 0.00 65 1011.5
20260504211512 79 147 7.0 16.0 0.00 0.00 0.00 65 1011.8
20260504210016 80 143 8.0 16.0 0.00 0.00 0.00 63 1012.0
20260504204521 82 145 6.0 15.0 0.00 0.00 0.00 61 1012.0
20260504203010 81 223 4.0 14.0 0.00 0.00 0.00 62 1012.4
20260504201507 81 236 6.0 15.0 0.00 0.00 0.00 60 1012.4
20260504200023 80 151 6.0 17.0 0.00 0.00 0.00 61 1012.7
20260504194521 80 176 5.0 13.0 0.00 0.00 0.00 61 1013.2
20260504193019 80 187 5.0 14.0 0.00 0.00 0.00 62 1013.2
20260504191519 81 122 6.0 14.0 0.00 0.00 0.00 60 1013.3
20260504190016 80 177 4.0 13.0 0.00 0.00 0.00 64 1013.6
20260504184515 79 175 8.0 13.0 0.00 0.00 0.00 63 1013.7
20260504183035 78 208 8.0 13.0 0.00 0.00 0.00 63 1014.0
20260504181526 78 202 5.0 10.0 0.00 0.00 0.00 63 1014.3
20260504180009 77 216 7.0 11.0 0.00 0.00 0.00 64 1014.6
20260504174516 78 150 7.0 20.0 0.00 0.00 0.00 63 1014.5
20260504173018 77 159 5.0 13.0 0.00 0.00 0.00 65 1014.8
20260504171518 77 234 6.0 16.0 0.00 0.00 0.00 65 1015.1
20260504081520 59 165 0.0 3.0 0.00 0.00 0.00 82 1016.4
20260504044525 61 212 0.0 2.0 0.00 0.00 0.00 78 1019.0
20260504043026 62 223 0.0 2.0 0.00 0.00 0.00 77 1018.9
20260504041525 62 203 0.0 0.0 0.00 0.00 0.00 75 1018.9
20260504040026 63 184 0.0 0.0 0.00 0.00 0.00 74 1018.9